Retour au catalogue

STARLINK-1067

ActifCommunicationsVLEO
NORAD 44771·PAYLOAD·🇺🇸 United States

Lancé Nov 11, 2019 depuis Cape Canaveral Space Force Station

Loading…

Prochains Passages (prochaines 24 heures)

TLE

FraisSource: CelesTrak SupGP

Époque: Sep 14, 2026, 12:00 UTC

1 44771C 19074BL  26257.50048611  .01222000  00000+0  66368-3 0  2576
2 44771  53.0283 338.3563 0010513 349.0396 128.8058 16.18824309    16

Suivez STARLINK-1067 en temps réel avec AllMySat

Download on the App Store